Regional Weather Roundup
Issued by NWS

Home | Current Version | Previous Version | Graphics & Text | Print | Product List | Glossary Off
Versions: 1 2 3 4 5 6 7 8 9 10 11 12 13 14 15 16 17 18 19 20 21 22 23 24 25 26 27 28 29 30 31 32 33 34 35 36 37 38 39 40 41 42 43 44 45 46 47 48 49 50

000
ASUS43 KMKX 010359
RWRWI

WISCONSIN REGIONAL WEATHER ROUNDUP
NATIONAL WEATHER SERVICE MILWAUKEE/SULLIVAN WI
1000 PM CST SAT JAN 31 2015

NOTE: "FAIR" INDICATES FEW OR NO CLOUDS BELOW 12,000 FEET WITH NO
SIGNIFICANT WEATHER AND/OR OBSTRUCTIONS TO VISIBILITY.

WIZ001-002-006>008-014>016-023>028-010500-
NORTHWEST WISCONSIN

CITY           SKY/WX    TMP DP  RH WIND       PRES   REMARKS
SUPERIOR ARPT  CLOUDY    11   0  60 NE12G17   30.36S WCI  -3
ASHLAND        CLOUDY    16   8  71 NE13      30.32S WCI   2
HAYWARD        CLOUDY    13   4  67 NE8       30.26S WCI   2
SIREN          CLOUDY    17   6  61 NE7G18    30.26F WCI   7
CUMBERLAND     CLOUDY    18   7  62 NE12      30.22S WCI   5
RICE LAKE      CLOUDY    17   8  66 NE14G20   30.24F WCI   3
CHETEK         CLOUDY    17   8  67 NE8       30.23S WCI   7
LADYSMITH      CLOUDY    17   9  70 NE10G16   30.24F WCI   5
EAU CLAIRE     NOT AVBL
MENOMONIE      CLOUDY    22  11  64 NE13G20   30.21S WCI   9
NEW RICHMOND   CLOUDY    21  10  63 NE15G21   30.21R WCI   8
OSCEOLA        CLOUDY    22  11  63 NE7       30.26R WCI  13
$$

WIZ003>005-009-010-017-018-010500-
NORTH CENTRAL WISCONSIN

CITY           SKY/WX    TMP DP  RH WIND       PRES   REMARKS
MANITOWISH WTR CLOUDY     9   3  77 NE8       30.23S WCI  -3
ARBOR VITAE    CLOUDY    13   5  70 NE5       30.23S WCI   5
WOODRUFF       CLOUDY    13   5  70 NE5       30.23S WCI   5
RHINELANDER    CLOUDY    12   5  73 NE6       30.21F WCI   3
EAGLE RIVER    CLOUDY    11   1  66 NE10      30.22S WCI  -3
LAND O LAKES   CLOUDY    10   4  78 NE7       30.24R WCI  -2
PHILLIPS       CLOUDY    12   4  70 NE9G17    30.23S WCI   0
TOMAHAWK       CLOUDY    14   6  70 NE5       30.22F WCI   6
MEDFORD        CLOUDY    17   9  70 NE12      30.17F WCI   4
MERRILL        CLOUDY    16   7  68 NE12G17   30.21S WCI   3
$$

WIZ029-030-035-036-043>047-010500-
CENTRAL WISCONSIN

CITY           SKY/WX    TMP DP  RH WIND       PRES   REMARKS
WAUSAU         CLOUDY    18   9  68 NE12      30.19R WCI   5
MOSINEE        CLOUDY    21  16  79 NE13      30.19S WCI   9
MARSHFIELD     CLOUDY    23  13  65 NE10      30.17S WCI  12
STEVENS POINT  CLOUDY    23  16  73 NE10      30.18S WCI  13
WAUPACA        CLOUDY    28  19  70 E6        30.21R WCI  22
WAUTOMA        NOT AVBL
WISC RAPIDS    CLOUDY    26  16  65 NE8       30.19S WCI  18
CAMP DOUGLAS   NOT AVBL
$$

WIZ011>013-019>022-031-037>040-048>050-010500-
NORTHEAST WISCONSIN

CITY           SKY/WX    TMP DP  RH WIND       PRES   REMARKS
ANTIGO         CLOUDY    15   9  77 NE15      30.20S WCI  -1
SHAWANO        CLOUDY    22  15  73 NE16      30.26R WCI   8
OCONTO         CLOUDY    18   7  62 MISG      30.29S
STURGEON BAY   CLOUDY    16   5  62 NE16      30.30S WCI   0
GREEN BAY      CLOUDY    19  13  77 NE24G31   30.26S WCI   2
MANITOWOC      NOT AVBL
APPLETON       CLOUDY    21  12  68 NE16G24   30.22S WCI   7
CLINTONVILLE   CLOUDY    23  18  80 E12       30.23S WCI  12
OSHKOSH        CLOUDY    24  18  77 NE16      30.19S WCI  11
$$

WIZ032>034-041-042-053>061-010500-
SOUTHWEST WISCONSIN

CITY           SKY/WX    TMP DP  RH WIND       PRES   REMARKS
LA CROSSE      LGT SNOW  28  23  81 E5        30.17R WCI  23
SPARTA         CLOUDY    28  20  73 NE7       30.17S WCI  20
VIROQUA        CLOUDY    26  26 100 E8        30.12R VSB 1   WCI  17
BOSCOBEL       LGT SNOW  29  26  89 NE6       30.14S FOG     WCI  23
PRAIRIE DU CHI LGT SNOW  30  27  88 NE6       30.12S WCI  24
PLATTEVILLE    CLOUDY    30  29  95 NE12      30.10S WCI  21
$$

WIZ056-057-062-063-064-067-068-010500-
SOUTH CENTRAL WISCONSIN

CITY           SKY/WX    TMP DP  RH WIND       PRES   REMARKS
REEDSBURG      LGT SNOW  26  24  92 E6        30.15S WCI  19
BARABOO/DELLS  LGT SNOW  25  22  89 E10G16    30.16R VSB 1   WCI  15
LONE ROCK      LGT SNOW  28  25  86 E12       30.16R VSB 1   WCI  18
MINERAL POINT  LGT SNOW  30  28  93 E13       30.10S VSB 1   WCI  20
MADISON        LGT SNOW  26  23  88 E12       30.15S FOG     WCI  16
MIDDLETON      CLOUDY    28  26  93 E8        30.16R VSB 1   WCI  20
WATERTOWN      LGT SNOW  27  25  94 E10       30.16R WCI  17
MONROE         LGT SNOW  30  30 100 NE9       30.11S WCI  22
JANESVILLE     LGT SNOW  32  30  93 NE7       30.14S WCI  26
$$

WIZ051-052-058>065-066-070>072-010500-
SOUTHEAST WISCONSIN

CITY           SKY/WX    TMP DP  RH WIND       PRES   REMARKS
MILWAUKEE      LGT SNOW  30  26  85 NE12      30.18R FOG     WCI  20
WAUKESHA       LGT SNOW  27  25  93 NE8       30.18R WCI  18
MILWAUKEE/TIMM CLOUDY    28  27  93 NE8       30.18F WCI  20
RACINE         LGT SNOW  31  27  85 NE7       30.18F FOG     WCI  24
BURLINGTON     LGT SNOW  28  26  93 E10       30.16S WCI  18
KENOSHA        LGT SNOW  30  28  92 NE8       30.16S FOG     WCI  22
FOND DU LAC    CLOUDY    27  18  69 NE10      30.18F WCI  17
SHEBOYGAN      CLOUDY    26  20  77 NE23G30   30.20S WCI  11
WEST BEND      CLOUDY    27  21  80 NE8       30.17F WCI  18
JUNEAU         CLOUDY    26  21  83 NE10      30.18S WCI  16
$$

LSZ147-162-010500-
LAKE SUPERIOR

STATION/POSITION TIME  TEMP    WIND        PRES    WAVE
                       AIR SEA DIR/SP/G            HT/PER
                 (UTC) (F)     (DEG/KT/KT) (MB)    (FT/S)
DEVILS ISLAND    0300   15      40/ 20/ 25 1029.5R
PORT WING        0340   17      50/ 16/ 23 1027.4S
SAXON HARBOR     0300   17      70/  8/ 15 1026.8
$$

LMZ867-665-643>646-010500-
LAKE MICHIGAN

STATION/POSITION TIME  TEMP    WIND        PRES    WAVE
                       AIR SEA DIR/SP/G            HT/PER
                 (UTC) (F)     (DEG/KT/KT) (MB)    (FT/S)
NORTHPORT PIER   0325   16     360/ 19/ 22 1026.4R
SISTER BAY       0313   15      10/ 18/ 25   N/A
KEWAUNEE LAKESHO 0300   22      30/ 20/ 25 1023.6R
SHEBOYGAN LAKESH 0300   30      30/ 17/ 19 1023.8F
PORT WASHINGTON  0300   30      40/ 13/ 15 1023.0
MILWAUKEE LAKESH 0300   31      40/ 16/ 18   N/A
KENOSHA   LAKESH 0300   31      40/ 13/ 15 1021.7S
$$

TC  - TEMPERATURE IN CELSIUS
VSB - VISIBILITY IN STATUTE MILES
WCI - WIND CHILL INDEX
HX  - HEAT INDEX




USA.gov is the U.S. government's official web portal to all federal, state and local government web resources and services.